Regional Weather Roundup
Issued by NWS

Home | Current Version | Previous Version | Text Only | Print | Product List | Glossary On
Versions: 1 2 3 4 5 6 7 8 9 10 11 12 13 14 15 16 17 18 19 20 21 22 23 24 25 26 27 28 29 30 31 32 33 34 35 36 37 38 39 40 41 42 43 44 45 46 47 48 49 50
000
ASHW40 PHFO 302343
RWRHI

WEATHER ROUNDUP FOR HAWAII
NATIONAL WEATHER SERVICE HONOLULU HI
100 PM HST THU OCT 30 2014

THIS IS AN AUTOMATED REPORT THAT HAS NOT BEEN QUALITY CONTROLLED.

NOTE..."FAIR" INDICATES FEW OR NO CLOUDS BELOW 12,000 FEET WITH NO
SIGNIFICANT WEATHER AND/OR OBSTRUCTIONS TO VISIBILITY.

* - THESE SITES REPORT LIMITED FIELDS

HIZ001>004-310000-
KAUAI-NIIHAU-

CITY           SKY/WX    TMP DP  RH WIND       PRES   REMARKS
LIHUE APT      MOSUNNY   82  72  71 NE17      30.08F
PORT ALLEN*      N/A     82 N/A N/A NE16G25     N/A
POIPU*           N/A     84 N/A N/A NE12G23     N/A
PRINCEVILLE*     N/A     77 N/A N/A MISG        N/A
KOKOLE POINT*  NOT AVBL
MOLOAA DAIRY*  NOT AVBL
WAIMEA HTS*      N/A     88  66  48 E9G17       N/A  HX  90
PUU OPAE*        N/A     73  68  83 CALM        N/A
PUU LUA*       NOT AVBL
MAKAHA RIDGE*  NOT AVBL
$$

HIZ005>011-310000-
OAHU-

CITY           SKY/WX    TMP DP  RH WIND       PRES   REMARKS
HONOLULU       LGT RAIN  82  69  64 NE13G20   30.03F
KALAELOA       PTSUNNY   80  68  66 E9G17     30.04F
KANEOHE MCB    LGT RAIN  77  70  79 E13G26    30.05F
WHEELER FIELD  FAIR      75  70  83 E9        30.05S
BELLOWS*         N/A    N/A N/A N/A NE20G26     N/A
KAHUKU*          N/A    N/A N/A N/A NE10G23     N/A
WHEELER*       NOT AVBL
WAIANAE HARBOR NOT AVBL
DILLINGHAM*      N/A     66  57  72 NE6G18      N/A
KAHUKU TRN*      N/A     72  63  73 E13G25      N/A
KAWAILOA*        N/A     73  70  88 E10G20      N/A
KII*             N/A     81  72  74 E18G24      N/A
MAKUA RANGE*     N/A     81  68  65 SE6G21      N/A
OAHU FOREST NW   N/A     66  66 100 VRB25G40    N/A
SCHOFIELD BRK*   N/A     64  59  82 CALM        N/A
SCHOFIELD S*   NOT AVBL
WAIANAE VLY*     N/A     75  68  78 SW3G21      N/A
KUAOKALA*        N/A     75  66  73 CALM        N/A
HONOULIUULI*   NOT AVBL
MOKUOLOE IS*     N/A    N/A N/A N/A MISG        N/A
PALEHUA*         N/A     81  68  65 CALM        N/A
WAIAWA PHB*    NOT AVBL
$$

HIZ012>013-310000-
MOLOKAI-

CITY           SKY/WX    TMP DP  RH WIND       PRES   REMARKS
MOLOKAI AIRPT  CLOUDY    79  68  69 NE21G31   30.04F
KALAUPAPA      NOT AVBL
MAKAPULAPAI*     N/A     81  68  65 E20G30      N/A
MOLOKAI 1*       N/A     70  63  78 NE8G30      N/A
PUU ALII*        N/A     61  59  94 E3G13       N/A
$$

HIZ016-310000-
KAHOOLAWE-

CITY           SKY/WX    TMP DP  RH WIND       PRES   REMARKS
KAHOOLAWE*       N/A     75 N/A N/A E15G24      N/A
HAKIOAWA*      NOT AVBL
HONOKANAIA*      N/A     85  67  54 NE15G25   30.03F
KANELOA*         N/A     81  68  65 E22G33    29.27F
KEALIALALO*    NOT AVBL
LUA MAKIKA*    NOT AVBL
$$

HIZ014>015-310000-
LANAI-

CITY           SKY/WX    TMP DP  RH WIND       PRES   REMARKS
LANAI CITY     PTSUNNY   82  64  54 E15       30.08F
LANAI 1*         N/A     75  70  83 NE29G43     N/A
$$

HIZ017>028-310000-
MAUI-

CITY           SKY/WX    TMP DP  RH WIND       PRES   REMARKS
KAHULUI        CLOUDY    86  62  44 NE20      30.04F
KAPALUA-W MAUI NOT AVBL
HANA AIRPORT   PTSUNNY   82  66  57 E9        30.07F
HANA*            N/A     82 N/A N/A NE6         N/A
HALEAKALA SUMM   N/A     52  30  43 NE15G29     N/A
MAALAEA BAY*   NOT AVBL
HALEAKALA*     NOT AVBL
KAUPO GAP*       N/A     73  57  56 E5G14       N/A
KULA 1*          N/A     62  58  86 NW5G12      N/A
$$

HIZ023>026-310000-
BIG ISLAND OF HAWAII COAST AND LOWER SLOPES-

CITY           SKY/WX    TMP DP  RH WIND       PRES   REMARKS
KAILUA KONA    MOSUNNY   85  72  65 W10       29.96F HX  91
HILO           PTSUNNY   82  70  66 NE15      30.04F
HONOKAA*       NOT AVBL
KAWAIHAE MWT*    N/A     86 N/A N/A W9          N/A
KAWAIHAE*        N/A     84 N/A N/A SW9         N/A
SOUTH POINT*     N/A     77 N/A N/A NE17G30     N/A
UPOLU AIRPORT*   N/A    N/A N/A N/A NE26G35     N/A
KAMUELA*       LGT RAIN  73  63  68 NE20G32   30.08F
HAKALAU*         N/A     61  54  78 NE7         N/A
KALOKO-HONOKO*   N/A     86  72  62 W8        29.95F HX  92
PALI 2*          N/A     79  57  47 N20G30      N/A
KEALAKOMO*       N/A     88  66  48 NE23G33     N/A  HX  90
KAUPULEHU*       N/A     84  59  42 N13G23      N/A
KAPAPALA*        N/A     83  61  46 E12G30      N/A
LOWER KAHUKU*    N/A     72  64  78 NE3G13      N/A
PUHE CS*       NOT AVBL
PUHO CS*         N/A     85  68  56 W3          N/A
PTA KEAMUKU*     N/A     72  61  68 NE26G35     N/A
WAIKOLOA*        N/A     82  61  47 NE23G35     N/A
$$

HIZ027>028-310000-
BIG ISLAND OF HAWAII INTERIOR AND SUMMMITS-

CITY           SKY/WX    TMP DP  RH WIND       PRES   REMARKS
BRADSHAW FIELD MOSUNNY   71  51  49 S10G16    30.34F
MK VISITOR CEN NOT AVBL
MAUNA KEA*       N/A     43 -15   8 CALM        N/A
MAUNA LOA*       N/A     54 -26   3 MISG        N/A
MAUNA LOA 1*   NOT AVBL
PTA KIPUKA*      N/A     73  55  53 NW8G16      N/A
PTA RANGE 17*    N/A     72  54  53 W12G20      N/A
PTA WEST*        N/A     75  57  53 W14G22      N/A
NENE CABIN*      N/A     61  54  77 SE6G13      N/A
AHUMOA*          N/A     69  56  64 SW6G12      N/A
PTA PORTABLE*  NOT AVBL
PUU MALI*      NOT AVBL
$$

HIC003-310000-
NORTHWEST ISLANDS-

CITY           SKY/WX    TMP DP  RH WIND       PRES   REMARKS
MIDWAY ISLAND  MOSUNNY   82  77  83 SE17      30.04F HAZE    HX  91
MIDWAY NOS*    NOT AVBL
FRENCH FRIGATE NOT AVBL
$$

PHZ110>124-180-310000-
BUOY REPORTS

STATION/POSITION TIME  TEMP    WIND        PRES    WAVE   SWELL
                       AIR SEA DIR/SP/G            HT/PER HT/DIR
                 (UTC) (F)     (DEG/KT/KT) (MB)    (FT/S) (FT/D)
BUOY 51001       NOT AVBL
BUOY 51101       NOT AVBL
BUOY 51100       2300      79   60/ 23/ 27 1018.9F
BUOY 51003       2300   81 82   50/ 16/ 19 1015.8F  10/11  10
BUOY 51004       2235   79 81   70/ 16/ 19 1015.0F   7/10   5/350
BARBERS PT BUOY  NOT AVBL
WAIMEA BAY BUOY  2300      81                N/A    11/12   7/350
KAILUA BAY BUOY  2300      81                N/A    10/11   7
LANAI BUOY       2300      81                N/A     3/13   2/210
BARBERS PT 2     2300      82                N/A     5/13   3/200
PAUWELA MAUI     2300      80                N/A    11/12   8/360
HILO             2300      81                N/A     9/11   5/350
KANEOHE BAY BUOY NOT AVBL
HANALEI KAUAI    NOT AVBL
KAHULUI HARBOR   2300   79 80   30/ 15/ 18 1016.9F
HONOLULU HARBOR  2300   80      50/  6/ 12 1016.7F
KILO NALU        NOT AVBL
HILO HARBOR      2300   80      40/ 15/ 19 1016.6F
MOKUOLOE         2300   78 81   70/ 13/ 17 1017.8F
NAWILIWILI       2300      83                N/A
WHOTS BUOY       NOT AVBL
BUOY 51028       NOT AVBL
$$

......................KEY........................................
  SKY/WX - SKY CONDITIONS/PRESENT WEATHER
  TMP    - TEMPERATURE IN FAHRENHEIT
  DWPT   - DEWPOINT IN FAHRENHEIT
  RH     - RELATIVE HUMIDITY IN PERCENT
  WIND   - DIRECTION AND SPEED /MPH FOR ISLANDS...KTS FOR BUOYS/
  PRES   - MEAN SEA LEVEL PRESSURE IN INCHES OF HG
  VSB    - VISIBILITY IN MILES
  HX     - HEAT INDEX
  WCI    - WIND CHILL INDEX
  VRB    - VARIABLE WIND DIRECTION
  N/A    - NOT AVAILABLE



USA.gov is the U.S. government's official web portal to all federal, state and local government web resources and services.